Claresholm, Alberta

11:42 PM MDT on April 24, 2017 (GMT -0600)
Claresholm

Weather History for CWDK - November, 2013

Change the Weather History Date:

Thursday, November 28, 2013

  Actual Average Record
Temperature  
Mean Temperature 30 °F -  
Max Temperature 49 °F - - ()
Min Temperature 12 °F - - ()
Degree Days  
Heating Degree Days 34    
Moisture  
Dew Point 20 °F    
Average Humidity 69    
Maximum Humidity 98    
Minimum Humidity 29    
Precipitation  
Precipitation 0.00 in - - ()
Sea Level Pressure  
Sea Level Pressure 30.04 in    
Wind  
Wind Speed 5 mph ()    
Max Wind Speed 16 mph    
Max Gust Speed 26 mph    
T = Trace of Precipitation, MM = Missing Value Source: Averaged Metar Reports

Daily Weather History Graph

Daily Weather History Graph

Search for Another Location

Airport or City:

Trip Planner

Search our weather history database for the weather conditions in past years. The results will help you decide how hot, cold, wet, or windy it might be!

Date:

Astronomy

Nov. 28, 2013 Rise Set
Actual Time 8:07 AM MST 4:37 PM MST
Civil Twilight 7:30 AM MST 5:14 PM MST
Nautical Twilight 6:50 AM MST 5:54 PM MST
Astronomical Twilight 6:11 AM MST 6:33 PM MST
Moon 2:48 AM MST (11/28) 2:11 PM MST (11/28)
Length of Visible Light 9h 43m
Length of Day
8h 29m
Waning Crescent, 22% of the Moon is Illuminated
Nov 28
Waning Crescent
Dec 2
New
Dec 9
First Quarter
Dec 17
Full
Dec 25
Last Quarter

Hourly Weather History & Observations

Time (MST) Temp. Windchill Dew Point Humidity Pressure Visibility Wind Dir Wind Speed Gust Speed Precip Events Conditions
12:00 AM 14.5 °F 8.8 °F 12.9 °F 93% 30.18 in - NW 3.5 mph - N/A   Unknown
1:00 AM 18.1 °F - 16.9 °F 95% 30.15 in - NE 2.3 mph - N/A   Unknown
2:00 AM 14.0 °F 8.2 °F 11.7 °F 90% 30.15 in - South 3.5 mph - N/A   Unknown
3:00 AM 13.1 °F - 11.3 °F 93% 30.15 in - SSW 1.2 mph - N/A   Unknown
4:00 AM 17.1 °F - 16.7 °F 98% 30.15 in - NE 2.3 mph - N/A   Unknown
5:00 AM 15 °F - 14 °F 93% 30.14 in - NE 1.2 mph - -  
5:00 AM 14.5 °F - 13.8 °F 97% 30.14 in - NE 1.2 mph - N/A   Unknown
6:00 AM 14.4 °F - 13.3 °F 95% 30.13 in - North 2.3 mph - N/A   Unknown
7:00 AM 12.7 °F 5.0 °F 11.5 °F 95% 30.12 in - North 4.6 mph - N/A   Unknown
8:00 AM 12.7 °F - 11.3 °F 94% 30.12 in - NNW 1.2 mph - N/A   Unknown
9:00 AM 14.5 °F - 13.6 °F 96% 30.09 in - ESE 2.3 mph - N/A   Unknown
10:00 AM 20.7 °F - 19.4 °F 95% 30.07 in - SSE 1.2 mph - N/A   Unknown
11:00 AM 27 °F - 23 °F 79% 30.04 in - SE 3.5 mph - -  
11:00 AM 27.1 °F 23.2 °F 23.2 °F 85% 30.04 in - SE 3.5 mph - N/A   Unknown
12:00 PM 37.4 °F 32.8 °F 29.5 °F 73% 29.97 in - East 5.8 mph - N/A   Unknown
1:00 PM 49.1 °F - 22.3 °F 35% 29.94 in - WSW 12.7 mph - N/A   Unknown
2:00 PM 46.6 °F - 22.6 °F 39% 29.93 in - WSW 16.1 mph - N/A   Unknown
3:00 PM 47.5 °F - 22.6 °F 38% 29.92 in - WSW 13.8 mph - N/A   Unknown
4:00 PM 47.7 °F - 22.8 °F 38% 29.94 in - WSW 13.8 mph - N/A   Unknown
5:00 PM 46 °F - 24 °F 29% 29.95 in - SW 6.9 mph - -  
5:00 PM 45.5 °F 41.8 °F 24.3 °F 43% 29.95 in - SW 6.9 mph - N/A   Unknown
6:00 PM 42.1 °F 35.7 °F 24.6 °F 50% 29.97 in - WSW 11.5 mph - N/A   Unknown
7:00 PM 41.4 °F 34.7 °F 25.0 °F 52% 29.98 in - West 11.5 mph - N/A   Unknown
8:00 PM 42.1 °F 36.1 °F 25.3 °F 52% 29.99 in - West 10.4 mph - N/A   Unknown
9:00 PM 43.2 °F 36.2 °F 24.6 °F 48% 29.97 in - WSW 13.8 mph - N/A   Unknown
10:00 PM 42.4 °F 35.0 °F 24.6 °F 49% 29.98 in - WSW 15.0 mph 26.5 mph N/A   Unknown
11:00 PM 44 °F - 26 °F 36% 29.95 in - West 13.8 mph - -  
11:00 PM 44.2 °F 37.6 °F 25.7 °F 48% 29.95 in - West 13.8 mph - N/A   Unknown